sat.trackr.live / text

‹ back to catalog

STARLINK-36141

NORAD 67057 · 2025-294AD

PAYLOAD ACTIVE UNKNOWN

§ Identity

Operator
Country
US
Launch date
2025-12-11
Launch site
AFETR
Launch vehicle
Mass (kg)
RCS (m²)

Purposes: comms

External: N2YO · Heavens-Above · Gunter

§ Orbital elements

Epoch: 2026-05-24T21:07:16.087584Z

Period
94.27 min
Inclination
42.9996°
Eccentricity
0.0001174
Mean motion
15.27578496 rev/d
Perigee alt
482.2 km
Apogee alt
483.9 km
Semi-major
6,861.2 km
B*
2.2258e-4
RAAN
327.6089°
Arg perigee
274.9168°
Mean anomaly
85.1549°
Rev number
2,645

§ Raw data

STARLINK-361411 67057U 25294AD  26144.88004731  .00005867  00000+0  22258-3 0  99922 67057  42.9996 327.6089 0001174 274.9168  85.1549 15.27578496 26454

JSON: /api/v1/satellites/67057 · /tle

For live sub-satellite position, see the globe view (requires WebGL).

§ Visibility from observer

Set your observer location to see the next 7 days of passes ≥ 10°. The values pass through the URL so the page stays shareable.

No JS? Fill the form by hand. The geolocation button needs JavaScript.